Location: Shot Rock
(38.6247°N, 120.1956°W)
Time: 20:11:56
(UTC-07:00)

Envisat - Visible Passes

Search period start: 18 October 2018 00:00
Search period end: 28 October 2018 00:00
Orbit: 764 x 766 km, 98.2° (Epoch: 18 October)

Date Brightness Start Highest point End Pass type
(mag) Time Alt. Az. Time Alt. Az. Time Alt. Az.
18 Oct 3.8 19:10:59 10° SE 19:15:20 30° ENE 19:19:41 10° N visible
18 Oct 4.7 20:49:52 10° SSW 20:54:15 30° W 20:58:41 10° NW visible
19 Oct 3.2 20:12:21 10° S 20:17:23 69° WSW 20:22:28 10° NNW visible
20 Oct 3.1 19:35:50 10° SSE 19:40:43 52° ENE 19:45:39 10° N visible
20 Oct 5.6 21:16:50 10° SW 21:20:02 17° W 21:23:13 10° NW visible
21 Oct 4.0 19:00:16 10° ESE 19:04:15 24° ENE 19:08:14 10° NNE visible
21 Oct 4.3 20:38:20 10° SSW 20:43:01 38° W 20:47:44 10° NNW visible
22 Oct 2.9 20:01:09 10° SSE 20:06:13 88° W 20:11:19 10° NNW visible
23 Oct 3.3 19:24:53 10° SE 19:29:35 41° ENE 19:34:20 10° N visible
23 Oct 5.3 21:04:55 10° SW 21:08:44 21° W 21:12:34 10° NW visible
24 Oct 4.3 18:49:41 10° ESE 18:53:10 19° ENE 18:56:41 10° NNE visible
24 Oct 3.8 20:26:55 10° S 20:31:48 48° W 20:36:42 10° NNW visible
25 Oct 2.8 19:50:01 10° SSE 19:55:02 73° ENE 20:00:07 10° N visible
25 Oct 5.9 21:32:55 10° WSW 21:34:34 11° W 21:36:11 10° WNW visible
26 Oct 3.6 19:14:01 10° SE 19:18:29 32° ENE 19:22:58 10° N visible
26 Oct 4.9 20:53:13 10° SSW 20:57:28 27° W 21:01:45 10° NW visible
27 Oct 4.5 18:39:17 10° E 18:42:07 15° ENE 18:44:58 10° NNE visible
27 Oct 3.4 20:15:35 10° S 20:20:34 63° WSW 20:25:38 10° NNW visible
